EHI
0 0 0 0 0 0 0 0 0 0 0 0 0 0 0 1 2 2 4 11 21 24 21 20 19 16 11 9 10 10 8 6 4 2 1 1 0 0 0 0 0 0 0 0 0 0 0 0 0
0 0 0 0 0 0 0 0 0 0 0 0 0 0 0 2 4 5 7 14 19 18 17 19 20 17 11 9 8 7 6 4 2 2 2 2 1 0 0 0 0 0 0 0 0 0 0 0 0
0 0 0 0 0 0 0 0 0 0 0 0 0 0 1 3 6 8 11 14 15 13 14 18 21 18 12 8 6 5 4 3 1 2 3 3 1 0 0 0 0 0 0 0 0 0 0 0 0
0 0 0 0 0 0 0 0 0 0 0 0 0 0 1 4 6 8 11 12 12 11 12 16 19 17 13 8 5 4 4 3 1 1 3 3 2 0 0 0 0 0 0 0 0 0 0 0 0
0 0 0 0 0 0 0 0 0 0 0 0 0 0 1 2 3 6 8 9 10 10 11 14 16 16 13 8 5 4 4 3 1 2 3 4 4 2 1 1 1 0 0 0 0 0 0 0 0
0 0 0 0 0 0 0 0 0 0 0 0 0 0 0 0 1 3 5 7 10 11 11 12 14 14 11 7 6 5 4 3 3 3 4 5 5 3 3 3 1 0 0 0 0 0 0 0 0
0 0 0 0 0 0 0 0 0 0 0 0 0 0 0 0 0 1 2 6 10 10 10 10 11 11 9 7 6 5 4 3 3 3 3 3 3 3 3 4 2 1 0 0 0 0 0 0 0
0 0 0 0 0 0 0 0 0 0 0 0 0 0 0 0 0 0 1 5 8 8 8 8 7 8 8 7 5 4 3 3 2 2 1 1 1 1 2 3 2 1 0 0 0 0 0 0 0
0 0 0 0 0 0 0 0 0 0 0 0 0 0 0 0 0 0 1 3 4 5 6 6 6 6 6 6 5 4 3 1 1 1 0 0 1 1 1 1 1 0 0 1 0 0 0 0 0
0 0 0 0 0 0 0 0 0 0 0 0 0 0 0 0 0 0 0 1 1 2 3 3 4 4 5 6 6 4 2 0 0 0 0 1 2 2 1 0 0 0 0 0 0 0 0 0 0
0 0 0 0 0 0 0 0 0 0 0 0 0 0 0 0 0 0 0 0 0 1 1 1 2 3 4 6 6 4 1 0 0 0 0 1 2 2 1 0 0 0 0 0 0 0 0 0 0
0 0 0 0 0 0 0 0 0 0 0 0 0 0 0 0 0 0 0 0 0 0 0 0 1 2 4 5 5 3 1 0 0 0 0 1 2 2 1 0 0 0 0 0 0 0 0 0 0
0 0 0 0 0 0 0 0 0 0 0 0 0 0 0 0 0 0 0 0 0 0 0 0 0 1 2 3 3 2 0 0 0 0 0 0 1 1 0 0 0 0 0 0 0 0 0 0 0
0 0 0 0 0 0 0 0 0 0 0 0 0 0 0 0 0 0 0 0 0 0 0 0 0 0 1 1 1 0 0 0 0 0 0 0 0 0 0 0 0 0 0 0 0 0 0 0 0
0 0 0 0 0 0 0 0 0 0 0 0 0 0 0 0 0 0 0 0 0 0 0 0 0 0 0 0 0 0 0 0 0 0 0 0 0 0 0 0 0 0 0 0 0 0 0 0 0
0 0 0 0 0 0 0 0 0 0 0 0 0 0 0 0 0 0 0 0 0 0 0 0 0 0 0 0 0 0 0 0 0 0 0 0 0 0 0 0 0 0 0 0 0 0 0 0 0
0 0 0 0 0 0 0 0 0 0 0 0 0 0 0 0 0 0 0 0 0 0 0 0 0 0 0 0 0 0 0 0 0 0 0 0 0 0 0 0 0 0 0 0 0 0 0 0 0
0 0 0 0 0 0 0 0 0 0 0 0 0 0 0 0 0 0 0 0 0 0 0 0 0 0 0 0 0 0 0 0 0 0 0 0 0 0 0 0 0 0 0 0 0 0 0 0 0
0 0 0 0 0 0 0 0 0 0 0 0 0 0 0 0 0 0 0 0 0 0 0 0 0 0 0 0 0 0 0 0 0 0 0 0 0 0 0 0 0 0 0 0 0 0 0 0 0
0 0 0 0 0 0 0 0 0 0 0 0 0 0 0 0 0 0 0 0 0 0 0 0 0 0 0 0 0 0 0 0 0 0 0 0 0 0 0 0 0 0 0 0 0 0 0 0 0
0 0 0 0 0 0 0 0 0 0 0 0 0 0 0 0 0 0 0 0 0 0 0 0 0 0 0 0 0 0 0 0 0 0 0 0 0 0 0 0 0 0 0 0 0 0 0 0 0
0 0 0 0 0 0 0 0 0 0 0 0 0 0 0 0 0 0 0 0 0 0 0 0 0 0 0 0 0 0 0 0 0 0 0 0 0 0 0 0 0 0 0 0 0 0 0 0 0
0 0 0 0 0 0 0 0 0 0 0 0 0 0 0 0 0 0 0 0 0 0 0 0 0 0 0 0 0 0 0 0 0 0 0 0 0 0 0 0 0 0 0 0 0 0 0 0 0
0 0 0 0 0 0 0 0 0 0 0 0 0 0 0 0 0 0 0 0 0 0 0 0 0 0 0 0 0 0 0 0 0 0 0 0 0 0 0 0 0 0 0 0 0 0 0 0 0
0 0 0 0 0 0 0 0 0 0 0 0 0 0 0 0 0 0 0 0 0 0 0 0 0 0 0 0 0 0 0 0 0 0 0 0 0 0 0 0 0 0 0 0 0 0 0 0 0
0 0 0 0 0 0 0 0 0 0 0 0 0 0 0 0 0 0 0 0 0 0 0 0 0 0 0 0 0 0 0 0 0 0 0 0 0 0 0 0 0 0 0 0 0 0 0 0 0
0 0 0 0 0 0 0 0 0 0 0 0 0 0 0 0 0 0 0 0 0 0 0 0 0 0 0 0 0 0 0 0 0 0 0 0 0 0 0 0 0 0 0 0 0 0 0 0 0
0 0 0 0 0 0 0 0 0 0 0 0 0 0 0 0 0 0 0 0 0 0 0 0 0 0 0 0 0 0 0 0 0 0 0 0 0 0 0 0 0 0 0 0 0 0 0 0 0
0 0 0 0 0 0 0 0 0 0 0 0 0 0 0 0 0 0 0 0 0 0 0 0 0 0 0 0 0 0 0 0 0 0 0 0 0 0 0 0 0 0 0 0 0 0 0 0 0
0 0 0 0 0 0 0 0 0 0 0 0 0 0 0 0 0 0 0 0 0 0 0 0 0 0 0 0 0 0 0 0 0 0 0 0 0 0 0 0 0 0 0 0 0 0 0 0 0
Wind_Speed
13 9 5 2 2 4 7 5 2 1 1 4 4 4 4 4 4 5 3 6 7 8 9 9 9 8 7 7 7 6 6 6 7 7 7 7 7 7 7 6 6 6 6 7 8 8 8 8 8
10 7 3 2 3 5 5 4 3 1 2 3 2 2 2 3 6 6 4 6 6 7 8 8 9 8 7 7 7 6 6 6 6 6 6 7 6 7 7 7 6 6 7 7 8 7 7 7 7
10 5 3 3 5 5 3 1 3 4 2 1 1 2 2 3 5 4 4 5 6 6 7 8 9 8 7 7 6 6 6 6 6 6 6 6 6 6 6 6 7 7 7 7 7 7 7 7 6
4 3 3 4 8 6 3 1 3 2 1 1 1 1 2 5 4 5 5 5 5 6 6 7 9 8 7 6 6 6 6 5 5 5 6 6 6 6 6 6 6 7 7 7 7 7 6 6 6
3 3 4 6 9 6 2 2 1 2 2 2 1 1 2 5 8 7 4 4 4 5 5 6 8 8 7 6 6 5 5 5 5 5 6 6 6 6 6 6 6 7 7 7 7 6 6 6 5
3 3 4 7 8 4 1 1 2 3 3 1 0 2 2 5 6 5 4 3 4 4 4 5 7 7 7 6 5 5 5 5 5 5 5 5 5 6 6 6 5 6 6 6 6 6 6 6 5
3 3 6 8 6 3 1 1 2 3 3 2 1 1 2 4 4 4 3 2 3 4 4 4 4 5 6 6 5 5 4 4 4 4 4 4 5 5 6 6 5 6 6 5 6 6 5 5 4
2 3 5 6 6 3 1 0 1 3 3 1 1 1 1 3 4 3 2 1 2 2 3 4 4 4 4 4 5 5 5 5 5 5 5 5 5 5 5 6 6 5 5 5 5 5 5 4 3
2 3 5 5 3 1 2 0 1 2 2 2 1 1 2 4 4 2 1 0 1 1 1 3 3 3 3 3 4 4 5 5 5 4 5 5 3 3 3 5 6 5 4 4 4 3 4 3 2
3 4 4 3 4 3 2 1 1 2 3 3 2 1 2 3 3 2 2 2 2 2 2 2 3 3 2 3 3 2 3 3 3 3 4 3 2 3 4 5 5 4 3 4 3 3 3 2 1
4 5 4 3 3 4 4 3 2 4 5 4 3 2 2 2 2 3 3 3 3 2 2 2 3 3 2 2 2 1 1 2 2 3 3 2 2 3 3 2 3 2 3 2 3 3 2 2 1
5 6 5 3 2 3 4 3 4 6 5 2 1 2 2 3 3 3 4 3 2 2 2 2 2 2 2 2 1 1 1 1 1 2 3 2 2 2 2 2 2 2 1 1 1 1 1 1 1
8 6 5 4 4 5 5 7 6 7 5 2 2 3 4 4 3 3 3 3 3 3 2 2 2 2 2 1 1 1 1 1 1 1 1 2 2 2 2 2 2 2 1 1 1 0 1 1 1
4 5 6 5 5 5 6 7 6 6 3 3 3 4 4 4 4 3 3 2 3 3 3 2 1 2 2 1 1 1 1 1 1 1 1 1 1 1 2 2 2 2 2 1 1 1 1 1 1
4 6 7 6 6 4 4 7 7 6 4 4 4 3 3 3 2 3 2 2 2 2 3 2 2 2 2 1 1 0 0 1 1 1 1 2 1 1 1 2 2 2 2 2 1 1 1 2 2
5 5 6 5 5 4 3 7 4 3 5 5 4 3 3 3 3 2 2 1 1 2 3 2 1 2 2 2 1 1 1 1 1 1 1 2 2 1 1 2 2 2 2 2 2 2 2 2 1
5 6 7 4 6 5 5 7 3 2 3 4 3 3 3 2 2 2 2 2 2 2 3 2 2 2 2 2 2 1 1 1 1 1 1 2 2 2 2 1 1 2 2 2 2 2 2 2 1
5 5 6 5 5 4 6 8 5 3 4 4 3 3 2 2 2 2 3 3 2 2 3 3 2 2 2 2 2 1 1 1 1 1 2 2 2 2 2 1 2 2 2 2 2 2 2 2 2
6 6 8 6 1 3 7 9 7 5 4 4 3 2 2 2 2 2 2 3 3 2 2 2 2 2 2 2 2 1 1 1 1 2 2 2 2 2 3 2 2 2 2 3 3 3 3 2 2
9 9 9 5 1 3 6 9 7 5 5 4 3 3 3 3 2 2 2 3 3 3 2 3 3 3 2 1 1 2 1 1 1 1 2 2 2 2 3 3 2 2 2 3 3 3 3 2 2
10 9 7 5 4 5 6 7 7 5 4 4 4 3 3 3 3 3 3 3 3 3 2 3 2 3 3 2 1 2 2 1 1 1 1 2 2 2 2 2 3 2 2 2 2 2 3 3 1
8 4 4 4 4 4 3 5 5 6 4 4 4 4 3 2 3 3 3 3 3 3 2 2 3 3 3 2 2 3 2 2 1 1 1 2 2 2 2 3 3 3 2 2 2 1 2 3 2
4 2 4 5 5 5 5 5 6 5 5 5 5 4 3 3 3 3 4 3 3 3 3 2 3 3 3 3 3 3 2 1 1 1 2 2 2 2 2 2 2 2 2 2 2 1 1 2 2
3 3 4 4 2 6 7 6 6 4 5 5 5 4 4 3 3 3 4 4 3 3 3 3 3 3 3 3 3 3 3 2 2 2 2 1 1 1 2 2 2 2 2 2 2 2 2 2 2
4 2 0 2 4 7 4 5 6 3 4 5 5 4 3 3 3 3 3 3 3 3 3 3 3 3 3 3 3 3 3 3 2 2 3 2 2 1 2 2 2 2 2 2 2 2 1 2 2
6 6 5 4 5 3 2 6 3 4 5 5 5 5 4 3 3 3 3 2 2 3 3 3 3 2 2 2 2 2 3 2 2 2 2 2 2 2 2 2 2 2 2 2 2 2 1 1 2
5 5 3 2 3 3 5 3 2 5 5 5 5 4 3 2 3 2 2 2 2 2 3 3 4 3 3 2 2 2 2 2 2 2 2 1 1 2 2 2 2 2 2 2 2 2 2 2 2
4 2 2 4 3 4 5 5 4 6 5 4 4 3 2 2 2 2 2 2 2 2 2 3 3 3 3 3 2 2 1 2 2 2 2 2 2 2 2 2 2 2 1 1 2 1 2 2 2
5 4 5 3 4 3 3 3 1 6 6 5 3 4 3 2 2 2 1 1 2 3 3 2 2 2 3 2 2 2 2 2 2 2 2 2 2 2 2 2 2 2 2 2 2 2 2 2 2
4 5 5 4 4 3 2 4 2 5 5 5 4 4 4 3 2 2 2 2 2 2 2 2 2 2 3 3 2 2 2 2 2 2 2 2 2 2 2 2 1 1 1 2 2 2 2 2 2
Wind_Direction
303 283 268 257 245 235 241 243 256 57 11 29 21 7 347 14 31 102 121 78 82 104 114 114 102 98 94 94 97 105 106 105 106 106 106 107 107 103 102 101 101 101 100 100 97 95 92 88 85
299 295 270 239 241 238 237 224 194 88 59 46 28 354 335 61 72 94 84 76 82 96 112 111 106 101 96 93 94 103 109 110 109 108 107 106 108 107 104 100 98 99 98 98 97 95 93 90 87
281 275 260 236 236 246 261 51 89 76 74 59 26 358 4 56 77 87 78 80 80 89 108 111 107 103 98 94 93 100 103 108 110 111 110 109 107 106 106 103 99 97 96 96 96 95 93 91 91
282 247 246 249 249 254 277 47 86 98 170 225 290 87 68 47 63 82 82 82 88 89 102 115 111 108 104 99 97 101 105 105 110 114 112 108 104 103 103 100 98 98 96 96 95 94 92 89 92
251 257 237 238 247 253 287 65 85 233 225 190 260 251 91 74 74 79 80 79 92 90 101 121 118 116 113 108 100 100 110 110 111 118 117 116 110 104 103 101 101 103 103 101 98 97 94 89 88
254 246 244 241 242 233 183 134 237 251 241 202 145 288 104 93 81 81 76 72 88 99 105 124 125 124 123 118 109 103 111 115 112 118 123 120 115 108 102 98 105 109 110 108 105 100 96 91 86
266 255 252 264 266 240 192 135 239 256 255 223 148 283 126 93 84 83 76 80 88 103 111 128 137 132 125 124 122 116 116 120 120 117 120 122 121 116 113 101 96 107 109 109 106 103 100 97 91
292 288 265 262 262 255 126 100 296 284 286 356 66 202 147 107 93 95 85 89 89 96 118 135 140 139 134 129 129 123 123 123 125 122 121 125 123 118 113 104 92 97 109 109 109 110 111 110 107
269 253 254 270 281 310 98 270 311 330 311 305 325 336 91 109 104 106 120 112 127 115 136 138 134 137 139 144 132 129 128 132 136 140 142 149 156 139 118 107 91 90 112 125 129 133 134 129 148
220 240 252 308 334 324 316 277 291 268 248 247 243 116 138 140 144 166 204 204 189 193 166 145 137 129 133 141 137 147 148 155 164 160 169 184 149 127 123 123 111 101 127 148 164 176 163 163 182
219 239 274 300 322 315 299 283 265 262 250 232 220 184 164 155 180 202 209 215 206 187 168 144 143 142 140 133 154 154 153 165 166 172 173 152 135 138 139 141 141 144 166 176 180 191 197 182 162
236 248 262 280 309 287 275 272 267 244 258 273 208 158 178 203 212 217 214 209 200 177 165 149 147 147 137 130 146 151 150 162 160 178 168 161 155 159 151 146 157 151 154 162 185 203 192 172 152
232 248 254 258 254 256 261 257 256 256 256 275 239 194 201 213 224 225 221 201 196 175 160 146 154 153 138 134 161 141 155 163 153 153 179 163 157 162 150 144 144 139 132 154 188 166 160 128 118
258 265 263 248 240 240 252 260 246 249 215 212 216 221 208 214 218 218 220 212 192 169 152 144 167 155 138 134 140 140 157 150 135 142 159 152 156 155 152 146 145 141 135 154 167 135 119 94 86
260 262 261 233 224 226 260 259 232 235 199 218 222 218 213 214 219 211 206 209 186 161 143 150 176 152 146 140 145 107 117 140 150 152 138 111 111 127 152 151 150 148 140 142 129 102 80 77 72
236 238 244 213 197 181 210 259 242 197 188 209 220 220 211 212 204 190 180 185 171 149 136 148 177 150 152 138 140 123 108 142 157 149 136 130 125 127 142 157 159 151 135 126 140 129 105 90 79
220 234 242 222 180 178 208 257 259 191 204 219 218 214 200 214 199 186 171 163 155 148 143 146 145 153 156 138 134 126 131 144 146 140 140 142 143 143 133 162 160 135 126 120 131 117 126 119 96
225 236 251 248 187 198 227 250 261 225 223 227 206 198 185 208 204 176 161 150 135 139 141 143 144 145 139 128 118 104 106 137 147 145 150 141 144 149 137 152 162 138 127 121 122 129 122 134 132
261 263 268 268 234 236 247 255 256 239 227 226 201 184 194 203 187 152 145 136 122 120 133 137 134 135 128 134 139 135 154 174 158 161 152 141 145 155 146 152 157 150 143 147 140 137 133 130 113
253 254 261 272 263 265 263 264 251 234 220 210 188 186 198 196 185 153 137 127 136 144 146 137 142 141 135 156 162 157 147 154 159 157 144 139 150 153 150 152 153 151 148 145 141 147 137 155 139
247 244 254 274 297 262 272 273 234 214 202 183 175 181 197 195 176 158 142 135 139 139 140 147 145 141 138 145 133 120 90 80 97 121 155 156 149 146 140 147 146 149 147 151 155 158 152 169 188
252 254 261 266 275 261 224 280 237 203 196 187 177 173 181 188 167 153 151 156 154 144 139 150 146 142 139 138 141 142 137 146 171 154 152 150 138 139 149 148 143 146 144 155 164 154 157 160 177
250 285 265 252 254 269 236 245 266 183 195 195 175 167 170 166 157 154 154 158 146 139 148 154 144 142 139 141 143 136 114 112 106 115 118 128 131 132 138 136 129 135 147 158 148 142 163 164 174
248 264 265 251 243 257 227 213 262 196 191 174 166 162 162 156 146 139 134 135 136 143 151 152 146 141 139 142 140 136 127 115 108 123 137 134 131 133 137 134 137 146 152 160 163 158 171 178 175
214 188 225 245 224 243 207 207 244 178 146 150 147 142 137 139 131 125 128 136 145 148 147 149 148 149 147 152 150 150 139 134 136 138 148 149 148 142 157 147 150 152 149 153 153 143 167 179 173
208 201 187 212 229 251 220 223 234 118 102 109 114 112 107 104 110 116 126 137 144 144 146 145 144 141 140 149 148 148 141 137 140 136 138 145 150 152 152 146 148 146 143 150 148 143 168 171 173
198 218 230 253 282 267 241 216 174 111 110 113 113 109 114 107 106 118 120 127 136 144 148 147 147 141 140 138 127 123 131 128 129 132 127 126 129 129 136 141 148 141 141 156 154 155 179 180 188
230 216 176 199 218 243 242 222 203 162 161 145 129 123 116 106 106 106 121 128 133 138 133 138 144 151 148 145 141 130 129 129 126 122 126 123 116 123 139 146 148 142 149 164 165 167 182 185 197
194 214 213 217 228 217 243 254 117 151 150 143 132 126 121 117 126 115 101 107 120 122 119 123 128 129 133 130 124 122 129 123 122 124 127 124 119 136 145 154 153 156 165 173 172 182 193 200 209
220 213 197 197 233 228 242 265 23 104 112 114 113 111 115 109 102 99 96 100 105 118 129 135 134 134 140 139 134 131 125 114 113 114 118 119 133 142 143 150 154 167 170 179 182 196 212 209 210